TimeEST,TemperatureF,Dew PointF,Humidity,Sea Level PressureIn,VisibilityMPH,Wind Direction,Wind SpeedMPH,Gust SpeedMPH,PrecipitationIn,Events,Conditions,WindDirDegrees,DateUTC
12:19 AM,21.2,15.8,80,29.87,9.0,WNW,10.4,-,0.00,Snow,Light Snow,300,2013-03-03 05:19:00
12:33 AM,21.2,15.8,80,29.87,7.0,NW,10.4,-,0.00,Snow,Light Snow,310,2013-03-03 05:33:00
1:22 AM,21.2,15.8,80,29.88,4.0,NW,9.2,-,0.00,Snow,Light Snow,310,2013-03-03 06:22:00
1:52 AM,21.0,14.0,74,29.96,9.0,WNW,9.2,-,0.00,Snow,Light Snow,300,2013-03-03 06:52:00
2:09 AM,21.2,14.0,74,29.87,9.0,NW,10.4,17.3,0.00,Snow,Light Snow,310,2013-03-03 07:09:00
2:16 AM,21.2,14.0,74,29.87,9.0,WNW,10.4,17.3,0.00,Snow,Light Snow,300,2013-03-03 07:16:00
2:52 AM,21.0,15.1,78,29.95,8.0,WNW,9.2,-,0.00,Snow,Light Snow,300,2013-03-03 07:52:00
3:52 AM,21.0,15.1,78,29.94,2.5,WNW,6.9,-,0.00,Snow,Light Snow,300,2013-03-03 08:52:00
3:54 AM,21.2,15.8,80,29.86,2.5,NW,9.2,-,0.00,Snow,Light Snow,310,2013-03-03 08:54:00
4:07 AM,21.2,15.8,80,29.86,6.0,NW,11.5,17.3,0.00,Snow,Light Snow,310,2013-03-03 09:07:00
4:52 AM,21.0,15.1,78,29.94,3.0,NW,10.4,-,0.00,Snow,Light Snow,310,2013-03-03 09:52:00
5:12 AM,21.2,15.8,80,29.86,4.0,NW,10.4,-,0.00,Snow,Light Snow,310,2013-03-03 10:12:00
5:52 AM,21.0,15.1,78,29.94,6.0,West,8.1,-,0.00,Snow,Light Snow,280,2013-03-03 10:52:00
6:21 AM,21.2,14.0,74,29.86,7.0,WNW,9.2,-,0.00,Snow,Light Snow,300,2013-03-03 11:21:00
6:33 AM,21.2,15.8,80,29.86,1.8,WNW,8.1,-,0.00,Snow,Light Snow,300,2013-03-03 11:33:00
6:42 AM,21.2,15.8,80,29.86,2.0,WNW,10.4,-,0.00,Snow,Light Snow,290,2013-03-03 11:42:00
6:52 AM,19.9,15.1,81,29.95,4.0,WNW,8.1,17.3,0.00,Snow,Light Snow,300,2013-03-03 11:52:00
7:01 AM,19.4,14.0,80,29.86,5.0,WNW,10.4,-,0.00,Snow,Light Snow,300,2013-03-03 12:01:00
7:15 AM,19.4,14.0,80,29.87,3.0,WNW,8.1,-,0.00,Snow,Light Snow,290,2013-03-03 12:15:00
7:23 AM,19.4,15.8,86,29.87,3.0,WNW,8.1,-,0.00,Snow,Light Snow,300,2013-03-03 12:23:00
7:31 AM,19.4,14.0,80,29.87,3.0,WNW,8.1,-,0.00,Snow,Light Snow,300,2013-03-03 12:31:00
7:43 AM,19.4,14.0,80,29.88,4.0,WNW,12.7,-,0.00,Snow,Light Snow,300,2013-03-03 12:43:00
7:52 AM,19.9,14.0,78,29.96,5.0,WNW,12.7,-,0.00,Snow,Light Snow,300,2013-03-03 12:52:00
8:06 AM,19.4,14.0,80,29.88,2.0,WNW,6.9,19.6,0.00,Snow,Light Snow,300,2013-03-03 13:06:00
8:21 AM,19.4,12.2,74,29.89,4.0,WNW,9.2,19.6,0.00,Snow,Light Snow,290,2013-03-03 13:21:00
8:42 AM,21.2,15.8,80,29.89,1.8,WNW,9.2,-,0.00,Snow,Light Snow,300,2013-03-03 13:42:00
8:52 AM,21.0,15.1,78,29.97,1.8,WNW,9.2,-,0.00,Snow,Light Snow,300,2013-03-03 13:52:00
9:00 AM,21.2,14.0,74,29.89,2.5,WNW,6.9,17.3,0.00,Snow,Light Snow,300,2013-03-03 14:00:00
9:07 AM,21.2,14.0,74,29.89,3.0,WNW,8.1,16.1,0.00,Snow,Light Snow,290,2013-03-03 14:07:00
9:27 AM,21.2,14.0,74,29.89,2.5,WNW,9.2,17.3,0.00,Snow,Light Snow,290,2013-03-03 14:27:00
9:37 AM,21.2,14.0,74,29.88,3.0,NW,9.2,-,0.00,Snow,Light Snow,310,2013-03-03 14:37:00
9:52 AM,21.0,14.0,74,29.97,3.0,WNW,9.2,18.4,0.00,Snow,Light Snow,300,2013-03-03 14:52:00
10:52 AM,21.9,12.0,66,29.97,8.0,NW,12.7,17.3,0.00,Snow,Light Snow,320,2013-03-03 15:52:00
11:52 AM,23.0,12.9,65,29.97,6.0,WNW,8.1,-,0.00,Snow,Light Snow,290,2013-03-03 16:52:00
12:52 PM,25.0,14.0,63,29.95,5.0,WNW,9.2,18.4,0.00,Snow,Light Snow,300,2013-03-03 17:52:00
1:04 PM,26.6,14.0,59,29.86,9.0,West,12.7,21.9,0.00,Snow,Light Snow,280,2013-03-03 18:04:00
1:52 PM,25.0,14.0,63,29.94,8.0,West,10.4,-,0.00,Snow,Light Snow,280,2013-03-03 18:52:00
2:52 PM,26.1,15.1,63,29.93,8.0,NW,15.0,21.9,0.00,Snow,Light Snow,310,2013-03-03 19:52:00
3:04 PM,24.8,15.8,69,29.85,1.8,WNW,13.8,-,0.00,Snow,Light Snow,300,2013-03-03 20:04:00
3:18 PM,24.8,15.8,69,29.86,3.0,NW,11.5,18.4,0.00,Snow,Light Snow,310,2013-03-03 20:18:00
3:33 PM,26.6,17.6,69,29.86,2.5,NW,10.4,-,0.00,Snow,Light Snow,310,2013-03-03 20:33:00
3:49 PM,24.8,17.6,74,29.86,1.2,NW,16.1,21.9,0.00,Snow,Light Snow,310,2013-03-03 20:49:00
3:52 PM,25.0,17.1,72,29.95,1.2,NW,19.6,26.5,0.00,Snow,Light Snow,310,2013-03-03 20:52:00
3:59 PM,24.8,15.8,69,29.86,3.0,NW,12.7,26.5,0.00,Snow,Light Snow,310,2013-03-03 20:59:00
4:43 PM,24.8,17.6,74,29.87,1.8,WNW,10.4,21.9,0.00,Snow,Light Snow,300,2013-03-03 21:43:00
4:52 PM,24.1,17.1,75,29.96,2.0,WNW,16.1,24.2,0.00,Snow,Light Snow,300,2013-03-03 21:52:00
5:06 PM,24.8,15.8,69,29.87,3.0,WNW,12.7,20.7,0.00,Snow,Light Snow,300,2013-03-03 22:06:00
5:50 PM,24.8,15.8,69,29.88,2.5,NW,12.7,18.4,0.00,Snow,Light Snow,310,2013-03-03 22:50:00
5:52 PM,24.1,16.0,71,29.97,2.5,WNW,10.4,-,0.00,Snow,Light Snow,290,2013-03-03 22:52:00
6:06 PM,23.0,15.8,74,29.89,7.0,NW,11.5,19.6,0.00,Snow,Light Snow,320,2013-03-03 23:06:00
6:52 PM,23.0,16.0,74,29.99,5.0,WNW,10.4,18.4,0.00,Snow,Light Snow,300,2013-03-03 23:52:00
7:07 PM,23.0,15.8,74,29.90,7.0,WNW,8.1,18.4,0.00,Snow,Light Snow,290,2013-03-04 00:07:00
7:26 PM,21.2,14.0,74,29.91,9.0,WNW,12.7,21.9,0.00,Snow,Light Snow,300,2013-03-04 00:26:00
7:52 PM,21.9,14.0,72,30.01,10.0,WNW,10.4,16.1,0.00,,Overcast,300,2013-03-04 00:52:00
8:52 PM,21.9,14.0,72,30.02,10.0,WNW,10.4,-,0.00,Snow,Light Snow,300,2013-03-04 01:52:00
9:30 PM,21.2,15.8,80,29.93,3.0,WNW,8.1,-,0.00,Snow,Light Snow,300,2013-03-04 02:30:00
9:52 PM,21.9,16.0,78,30.02,4.0,WNW,10.4,-,0.00,Snow,Light Snow,300,2013-03-04 02:52:00
10:15 PM,21.2,15.8,80,29.93,2.0,WNW,8.1,-,0.00,Snow,Light Snow,300,2013-03-04 03:15:00
10:28 PM,21.2,15.8,80,29.93,1.5,WNW,6.9,-,0.00,Snow,Light Snow,300,2013-03-04 03:28:00
10:34 PM,21.2,15.8,80,29.93,3.0,NW,8.1,-,0.00,Snow,Light Snow,310,2013-03-04 03:34:00
10:52 PM,21.9,16.0,78,30.02,4.0,NW,11.5,19.6,0.00,Snow,Light Snow,310,2013-03-04 03:52:00
11:52 PM,21.9,16.0,78,30.01,9.0,NW,9.2,17.3,0.00,Snow,Light Snow,310,2013-03-04 04:52:00